Location: Unspecified
(51.3000°N, 0.0000°E)
Time: 04:55:08
(UTC+00:00)

SL-16 Debris - Visible Passes

Search period start: 05 April 2026 00:00
Search period end: 15 April 2026 00:00
Orbit: 633 x 856 km, 97.7° (Epoch: 28 March)

Date Brightness Start Highest point End Pass type
(mag) Time Alt. Az. Time Alt. Az. Time Alt. Az.
5 Apr ? 03:26:43 10° NE 03:30:05 17° E 03:33:31 10° SE visible
6 Apr ? 04:21:26 10° NNE 04:26:33 44° E 04:31:48 10° S visible
7 Apr ? 03:39:22 10° NE 03:43:27 21° E 03:47:36 10° SE visible
8 Apr ? 04:34:29 10° NNE 04:39:47 56° E 04:45:14 10° S visible
9 Apr ? 03:52:10 10° NE 03:56:46 27° E 04:01:26 10° SSE visible
10 Apr ? 03:11:00 10° ENE 03:13:28 13° E 03:15:56 10° ESE visible
11 Apr ? 04:05:05 10° NNE 04:10:03 35° E 04:15:06 10° SSE visible
12 Apr ? 03:23:21 10° NE 03:26:50 17° E 03:30:20 10° SE visible
13 Apr ? 04:18:04 10° NNE 04:23:18 44° E 04:28:36 10° SSE visible
14 Apr ? 03:35:58 10° NE 03:40:09 22° E 03:44:22 10° SE visible
